Wind_Speed
20 21 13 11 8 9 11 11 12 13 13 13 12 13 12 12 11 13 14 12 11 10 8 8 8 7 7 8 7 7 8 8 10 11 10 10 9 6 5 6 7 7 6
15 11 8 7 5 6 7 10 15 14 14 13 13 11 10 11 11 12 11 11 11 9 5 7 7 6 7 8 7 6 6 8 8 9 10 11 13 11 9 8 10 10 9
13 6 4 5 5 5 8 13 15 14 14 13 11 9 10 10 10 9 8 8 9 8 6 5 5 5 5 6 7 6 6 7 8 8 9 10 12 11 9 9 10 11 11
10 7 4 5 4 6 11 15 14 13 12 11 10 9 8 7 7 7 8 7 6 8 9 3 4 3 4 4 5 5 5 6 7 7 7 9 10 10 8 8 8 9 10
10 5 7 5 4 8 11 15 13 12 10 9 7 4 4 1 6 5 6 7 8 4 4 4 4 2 2 3 3 4 4 5 5 5 5 7 9 9 8 9 8 8 9
7 6 6 8 11 10 13 13 11 10 10 8 6 4 5 4 9 5 7 5 5 2 1 3 3 3 2 1 1 2 2 2 3 3 2 3 7 8 7 6 6 6 6
9 9 13 12 11 12 12 12 10 8 7 7 7 8 9 7 8 9 6 2 7 12 9 8 4 1 4 3 2 0 1 2 2 2 1 0 2 4 6 5 4 4 4
7 11 10 8 10 12 11 10 9 8 7 8 8 5 6 6 6 6 6 7 7 5 4 8 9 5 7 8 5 2 2 3 2 3 2 2 2 2 3 4 2 1 2
7 8 8 11 11 11 10 9 8 6 4 2 4 6 8 9 8 8 8 7 5 4 4 6 6 5 8 8 8 9 9 6 6 5 5 4 5 4 5 4 4 3 3
8 7 7 8 8 8 8 7 6 4 5 8 10 12 11 9 10 10 9 9 7 5 5 6 8 8 9 11 11 10 13 16 9 8 8 7 8 8 8 8 7 6 6
7 6 6 6 7 6 6 6 7 8 10 9 10 11 10 10 10 9 9 11 12 11 10 9 7 8 11 15 15 11 9 11 12 11 11 11 11 11 11 11 11 11 9
8 9 9 9 8 7 7 8 9 9 10 9 9 10 11 11 10 10 10 11 12 14 15 15 9 9 14 8 12 13 11 11 12 13 12 12 11 13 13 13 14 15 14
12 13 15 13 9 7 9 10 11 11 10 10 11 12 12 12 11 10 10 11 12 13 19 20 16 14 17 15 5 11 12 14 15 15 14 14 14 17 18 16 16 17 18
14 15 13 13 11 10 11 12 12 12 13 13 13 12 11 10 11 9 9 10 12 13 13 14 14 16 18 24 15 1 6 13 17 20 19 19 19 19 20 20 19 20 19
12 11 12 12 13 14 12 12 12 13 12 12 11 11 10 9 10 10 11 12 12 12 11 11 11 13 12 13 12 13 10 15 11 18 19 18 18 19 23 24 24 24 23
12 12 12 12 14 14 13 13 13 13 12 12 12 11 10 11 11 11 12 13 14 14 14 13 12 12 12 10 9 9 8 8 11 7 6 10 15 24 25 25 28 27 24
9 9 9 10 10 11 12 12 13 12 11 12 11 9 9 10 10 10 11 12 14 14 14 14 13 14 13 12 10 9 9 9 9 8 8 12 15 19 25 27 26 29 30
7 6 6 7 7 8 8 8 9 9 7 6 8 7 7 9 9 9 11 14 16 16 14 13 13 12 11 10 11 11 12 12 13 12 11 12 16 19 18 22 22 26 30
5 5 5 4 4 5 5 5 6 5 5 4 5 6 7 7 7 9 11 12 13 13 12 13 14 15 14 13 13 14 14 14 15 15 15 16 17 18 16 15 22 23 29
5 4 3 3 2 4 4 3 2 2 1 3 5 6 6 7 10 11 10 11 12 13 15 15 16 16 14 15 16 18 19 19 19 18 18 18 18 18 18 18 17 20 26
3 3 2 2 2 4 4 4 3 2 2 2 4 5 6 7 10 12 15 15 15 14 14 16 19 20 20 20 20 22 24 23 22 23 24 23 21 19 20 21 20 20 18
2 2 3 2 1 3 5 5 4 3 4 4 5 6 7 9 11 13 16 15 16 17 18 18 19 20 23 24 23 20 19 24 25 26 25 24 25 24 22 22 23 22 22
4 3 2 2 2 1 1 3 3 3 3 5 7 9 10 12 13 14 14 15 15 16 19 21 22 22 24 24 27 29 27 23 20 25 26 28 28 27 26 27 27 25 25
2 2 0 2 1 1 0 1 3 4 5 7 9 12 13 15 16 16 15 15 18 20 20 21 25 24 25 28 30 32 33 33 28 23 26 29 29 32 33 29 30 31 29
1 3 3 1 0 2 2 4 4 4 7 10 13 16 19 21 21 19 18 18 20 25 26 26 27 28 28 30 33 33 33 36 38 39 34 32 33 33 34 37 35 34 36
3 4 4 4 5 6 7 9 10 11 12 14 17 20 21 23 26 25 24 22 23 26 28 30 31 33 35 36 39 41 40 38 38 40 43 35 34 32 36 37 40 41 41
Wind_Direction
148 124 97 95 89 86 92 85 89 90 84 91 93 93 99 103 110 110 112 104 91 87 80 88 89 94 97 95 86 84 97 105 104 98 76 67 56 70 94 112 112 100 94
129 106 84 99 96 85 72 77 90 82 82 80 80 81 85 97 101 104 105 99 99 106 70 87 95 97 104 103 93 89 94 109 103 91 80 79 74 74 86 97 101 96 95
163 177 126 111 89 69 83 103 91 85 83 82 80 84 85 87 98 105 110 109 107 108 75 66 101 103 103 106 107 102 106 108 102 86 76 82 83 75 77 81 92 99 98
159 173 151 145 95 81 92 101 104 100 96 90 95 93 90 86 89 110 111 103 95 91 87 28 74 105 103 99 100 95 90 91 92 92 94 89 87 85 75 75 81 91 101
169 156 159 154 137 113 112 118 122 119 103 101 95 90 68 78 170 147 141 147 124 102 153 62 54 78 86 80 84 98 105 107 99 84 98 103 98 91 90 82 81 87 93
165 153 155 148 138 125 126 128 126 115 114 112 104 66 45 47 60 63 204 190 160 198 155 67 340 52 75 97 69 95 123 122 118 109 83 114 109 104 94 93 95 92 85
143 139 126 132 137 136 134 130 133 121 100 88 86 81 59 78 68 62 54 224 235 249 267 256 208 202 241 305 288 312 250 177 185 179 152 91 142 124 113 101 94 99 85
130 139 141 153 150 139 137 137 122 105 95 91 88 76 46 51 57 60 59 51 42 42 4 334 343 198 222 223 278 269 240 270 244 225 210 228 257 220 153 139 131 333 336
139 154 147 155 153 150 147 134 128 123 101 57 43 44 52 52 48 49 41 26 6 328 309 299 294 286 235 233 248 271 261 274 274 275 269 238 231 245 242 218 203 241 286
140 139 143 154 150 159 150 146 133 105 81 68 69 69 67 60 56 47 39 29 27 17 355 323 306 294 277 254 266 268 268 273 278 265 266 264 252 235 243 250 244 231 255
133 133 137 131 142 140 137 114 99 92 82 74 73 74 70 56 47 49 46 51 51 50 33 9 326 304 297 280 250 244 260 256 264 270 266 254 253 243 248 252 256 252 244
126 117 110 108 110 118 114 109 100 91 83 81 80 77 75 73 72 69 61 61 55 51 29 19 9 1 356 341 237 244 244 247 251 255 259 264 256 240 245 250 255 257 255
106 110 106 98 96 100 106 101 99 98 95 91 91 94 91 85 83 80 69 50 41 43 31 48 52 34 32 23 290 251 256 266 265 262 257 258 262 255 257 251 246 252 256
104 106 101 89 83 92 102 102 99 98 100 101 104 99 91 85 81 76 60 49 52 44 46 39 39 49 40 35 34 274 272 283 280 275 269 263 260 261 264 258 248 246 247
107 106 100 90 89 103 99 97 101 104 104 101 96 95 96 82 66 50 39 30 30 32 23 13 27 30 27 27 29 40 30 18 333 269 267 273 269 269 264 260 255 254 251
100 100 99 99 96 106 102 98 94 99 100 97 91 87 75 63 51 39 27 18 11 11 8 3 359 4 3 360 2 353 348 343 23 341 323 328 294 276 269 258 253 251 251
87 89 95 98 105 107 106 101 98 93 101 96 81 76 63 57 45 33 21 14 9 4 359 356 354 352 350 349 351 344 338 332 337 305 338 317 330 310 276 265 261 252 249
69 67 85 100 107 113 114 110 107 102 97 98 77 73 58 46 28 18 14 11 6 359 356 355 353 353 348 348 352 351 348 344 340 332 317 303 306 314 314 259 258 256 254
73 65 59 87 111 123 118 114 118 108 97 91 73 52 38 27 9 5 5 359 354 356 352 351 349 346 341 340 339 339 341 337 336 332 326 319 309 310 309 335 269 265 265
66 49 56 52 119 146 144 143 158 134 49 30 16 3 353 343 345 345 345 349 351 354 356 352 347 346 342 336 334 332 332 331 328 324 324 319 311 305 300 295 290 290 274
33 62 72 140 178 194 191 199 217 237 257 297 320 322 325 324 319 326 335 341 344 345 343 342 339 334 330 326 325 323 320 320 318 318 318 315 307 302 296 292 290 292 289
336 28 70 86 163 208 223 226 235 250 270 292 307 305 299 303 314 322 326 326 333 336 336 336 330 326 323 320 315 311 313 316 317 318 316 309 305 300 290 284 283 280 276
351 2 65 71 69 82 209 245 257 271 274 288 285 285 292 301 309 315 319 325 329 336 332 328 322 322 320 318 316 315 314 312 309 304 307 310 307 299 289 284 278 273 271
321 306 303 109 135 122 51 277 280 275 275 281 288 298 301 305 312 314 319 325 335 330 324 324 324 321 323 316 314 317 314 312 309 304 302 296 294 296 292 282 275 271 263
293 265 262 242 267 231 242 251 256 278 302 308 311 312 310 309 307 307 308 315 322 322 322 323 322 324 318 319 318 318 314 313 312 312 307 298 294 284 280 279 273 266 264
254 287 281 282 287 295 303 304 300 298 296 299 305 305 306 305 302 301 302 306 319 318 318 320 322 323 322 323 321 319 319 314 313 309 306 299 296 287 280 277 273 269 264
Height
5897 5904 5909 5911 5913 5914 5914 5915 5915 5916 5917 5918 5920 5920 5920 5921 5922 5923 5923 5924 5924 5926 5926 5926 5926 5926 5926 5926 5926 5925 5924 5924 5923 5921 5920 5920 5919 5918 5918 5917 5917 5916 5916
5908 5907 5910 5912 5914 5915 5915 5916 5917 5918 5919 5921 5921 5922 5923 5923 5924 5924 5924 5924 5925 5926 5927 5927 5927 5926 5926 5926 5926 5926 5925 5924 5924 5923 5921 5920 5920 5920 5919 5919 5917 5917 5917
5912 5912 5912 5914 5915 5916 5917 5917 5917 5920 5921 5922 5923 5924 5924 5925 5925 5925 5925 5926 5926 5926 5927 5926 5927 5927 5927 5926 5926 5926 5926 5926 5925 5924 5923 5922 5921 5921 5921 5920 5919 5918 5918
5916 5915 5915 5916 5917 5917 5918 5918 5919 5920 5921 5922 5923 5925 5926 5926 5926 5926 5926 5926 5926 5927 5927 5927 5927 5927 5927 5927 5926 5927 5927 5926 5926 5925 5924 5924 5923 5922 5923 5922 5920 5919 5918
5916 5917 5917 5918 5918 5919 5919 5919 5920 5922 5922 5923 5924 5924 5925 5926 5926 5926 5926 5926 5926 5926 5926 5926 5927 5927 5928 5928 5927 5927 5927 5927 5926 5926 5925 5925 5924 5923 5923 5923 5922 5921 5921
5917 5917 5918 5919 5920 5920 5920 5920 5921 5922 5922 5923 5924 5925 5925 5924 5926 5925 5926 5927 5926 5926 5926 5926 5927 5927 5927 5927 5927 5927 5927 5927 5926 5926 5927 5926 5925 5924 5924 5923 5923 5922 5922
5917 5917 5919 5920 5920 5920 5921 5921 5921 5922 5923 5924 5924 5924 5925 5925 5926 5926 5926 5926 5926 5925 5925 5924 5925 5925 5926 5926 5926 5926 5926 5926 5926 5926 5927 5926 5926 5925 5924 5924 5924 5923 5923
5917 5918 5920 5920 5920 5921 5921 5921 5922 5923 5923 5924 5925 5925 5926 5926 5926 5926 5925 5925 5925 5924 5924 5923 5923 5923 5924 5924 5925 5925 5925 5926 5925 5925 5925 5925 5926 5925 5924 5923 5924 5924 5924
5919 5920 5920 5921 5921 5922 5922 5922 5923 5923 5924 5925 5925 5924 5925 5925 5926 5926 5926 5925 5925 5925 5924 5923 5922 5922 5922 5923 5924 5923 5924 5924 5924 5924 5924 5924 5924 5924 5924 5923 5923 5924 5924
5920 5921 5921 5922 5922 5923 5923 5923 5923 5924 5925 5925 5924 5924 5925 5926 5926 5926 5926 5926 5925 5924 5923 5922 5922 5921 5920 5920 5920 5921 5921 5921 5922 5922 5922 5922 5922 5922 5922 5923 5922 5922 5922
5922 5922 5923 5923 5923 5923 5924 5924 5925 5925 5925 5926 5926 5925 5926 5926 5926 5927 5927 5926 5925 5924 5923 5922 5920 5920 5919 5917 5916 5917 5918 5918 5919 5919 5919 5919 5919 5920 5920 5920 5921 5921 5920
5924 5924 5924 5924 5924 5924 5924 5925 5926 5926 5927 5927 5927 5926 5926 5927 5928 5928 5928 5926 5925 5925 5923 5920 5918 5918 5916 5912 5913 5914 5915 5915 5916 5916 5916 5916 5917 5917 5917 5918 5918 5919 5918
5926 5926 5926 5926 5926 5926 5926 5926 5927 5927 5927 5928 5927 5927 5928 5928 5929 5928 5928 5927 5926 5925 5923 5921 5919 5917 5915 5913 5912 5912 5913 5913 5913 5913 5913 5913 5914 5915 5914 5914 5914 5915 5915
5929 5929 5929 5928 5928 5927 5928 5928 5928 5928 5929 5929 5929 5930 5930 5930 5930 5930 5929 5928 5927 5925 5924 5922 5921 5919 5916 5914 5911 5911 5913 5912 5911 5910 5910 5911 5911 5911 5911 5911 5911 5910 5911
5931 5932 5932 5931 5930 5930 5930 5930 5930 5930 5930 5931 5931 5931 5932 5932 5932 5932 5931 5929 5928 5927 5925 5922 5921 5919 5917 5915 5913 5913 5912 5910 5907 5906 5906 5907 5907 5906 5907 5907 5907 5907 5907
5934 5934 5934 5934 5933 5933 5932 5932 5932 5932 5932 5932 5933 5933 5934 5934 5933 5933 5932 5930 5928 5926 5925 5923 5921 5919 5917 5915 5914 5912 5910 5908 5907 5905 5905 5904 5903 5901 5900 5901 5901 5901 5902
5936 5936 5936 5936 5935 5935 5934 5934 5934 5934 5935 5935 5935 5936 5936 5935 5935 5934 5932 5930 5928 5926 5925 5923 5921 5919 5917 5915 5913 5911 5909 5907 5905 5903 5901 5900 5898 5896 5894 5894 5894 5895 5896
5938 5937 5937 5937 5937 5937 5937 5937 5936 5936 5936 5936 5937 5937 5937 5935 5935 5934 5933 5931 5929 5927 5926 5923 5921 5918 5916 5914 5912 5910 5908 5906 5904 5902 5899 5896 5894 5891 5887 5886 5888 5888 5889
5937 5937 5938 5937 5937 5937 5937 5938 5938 5938 5938 5938 5938 5937 5937 5936 5935 5935 5933 5931 5930 5928 5925 5923 5922 5919 5916 5913 5910 5908 5906 5904 5902 5900 5897 5894 5891 5888 5885 5884 5883 5883 5882
5937 5937 5936 5937 5937 5937 5937 5938 5938 5938 5937 5937 5937 5937 5937 5937 5936 5934 5932 5930 5928 5926 5924 5922 5921 5919 5917 5913 5910 5906 5903 5900 5898 5896 5893 5891 5888 5885 5881 5879 5878 5877 5875
5937 5935 5935 5934 5935 5935 5935 5936 5937 5937 5937 5937 5936 5936 5935 5934 5934 5932 5930 5927 5925 5923 5921 5919 5918 5916 5915 5913 5909 5904 5900 5897 5894 5891 5889 5886 5883 5881 5878 5875 5873 5871 5869
5936 5935 5934 5933 5933 5934 5934 5935 5935 5936 5936 5935 5935 5934 5934 5933 5932 5930 5928 5926 5924 5921 5919 5916 5913 5911 5910 5908 5906 5903 5898 5892 5888 5885 5883 5880 5878 5876 5872 5870 5868 5865 5863
5936 5935 5934 5934 5933 5933 5933 5934 5934 5933 5933 5934 5933 5933 5932 5930 5929 5927 5926 5924 5921 5918 5916 5914 5910 5907 5904 5900 5898 5897 5895 5891 5886 5879 5875 5871 5870 5868 5866 5864 5861 5859 5856
5935 5935 5934 5933 5933 5933 5933 5933 5933 5933 5933 5932 5932 5931 5930 5928 5927 5924 5920 5918 5916 5914 5912 5908 5906 5902 5899 5897 5891 5886 5882 5879 5877 5877 5870 5863 5860 5857 5855 5854 5853 5850 5848
5935 5934 5934 5932 5933 5932 5932 5932 5932 5932 5932 5931 5930 5929 5928 5925 5922 5919 5916 5913 5911 5909 5906 5902 5899 5897 5893 5889 5884 5880 5876 5870 5864 5860 5862 5858 5850 5846 5844 5841 5840 5839 5838
5934 5933 5933 5932 5931 5931 5931 5931 5930 5929 5928 5926 5926 5925 5923 5920 5917 5914 5911 5909 5906 5902 5900 5896 5892 5888 5883 5878 5875 5870 5866 5861 5856 5851 5847 5844 5842 5840 5833 5830 5828 5826 5825